Flag for Australia Weather past 2 weeks in Melbourne, Victoria, Australia

Now
50 °F

Low clouds.


Feels Like: 48 °F
Forecast: 40 / 67 °F
Wind: 6 mph from North

Location: Melbourne Airport

Current Time: Aug 30, 2014 at 6:50:27 AM

Latest Report: Aug 30, 2014 at 5:00 AM


Visibility: 4 mi

Pressure: 30.27 "Hg

Humidity: 94%

Dew point: 48 °F

Location of MelbourneLocation

Historic Weather in Melbourne — Graph

°F

Melbourne temperature yesterday

Maximum temperature yesterday: 57 °F (at 2:30 PM)
Minimum temperature yesterday: 39 °F (at 4:30 AM)
Average temperature yesterday: 49 °F

Past Weeks' High & Low Weather Summary

 TemperatureHumidityPressure
High68 °F (Aug 28, 2:00 PM)100% (Aug 16, 5:30 AM)30.45 "Hg (Aug 16, 5:30 AM)
Low37 °F (Aug 15, 5:00 AM)34% (Aug 22, 3:00 PM)29.98 "Hg (Aug 17, 2:00 PM)
Average51 °F78%30.28 "Hg
* Reported Aug 15 5:00 AM — Aug 30 5:00 AM, Melbourne, Weather by CustomWeather, © 2014

Note: Actual official high and low records may vary slightly from our data, if they occured in-between our weather recording intervals... More about our weather records

Advertising

Melbourne weather history for previous 24 hours

 ConditionsComfort  
Time TempWeatherWind HumidityBarometerVisibility
5:00 AM
Aug 30
50 °FLow clouds.6 mph94%30.27 "Hg4 mi
4:30 AM50 °FLow clouds.5 mph94%30.27 "Hg4 mi
4:00 AM50 °FLow clouds.6 mph94%30.27 "Hg4 mi
3:30 AM52 °FFog.5 mph88%30.27 "Hg3 mi
3:00 AM52 °FFog.5 mph94%30.27 "Hg3 mi
2:30 AM52 °FFog.5 mph94%30.30 "Hg3 mi
2:00 AM52 °FLow clouds.3 mph94%30.30 "Hg4 mi
1:30 AM52 °FLow clouds.1 mph94%30.30 "Hg4 mi
1:01 AM52 °FLow clouds.5 mph94%30.33 "Hg4 mi
12:30 AM52 °FLow clouds.6 mph94%30.33 "Hg4 mi
12:00 AM52 °FFog.5 mph94%30.33 "Hg3 mi
11:30 PM
Aug 29
52 °FPassing clouds.5 mph94%30.33 "Hg4 mi
11:00 PM52 °FPassing clouds.5 mph94%30.33 "Hg6 mi
10:30 PM52 °FPassing clouds.6 mph94%30.33 "Hg6 mi
10:00 PM52 °FPassing clouds.6 mph94%30.36 "Hg6 mi
9:30 PM52 °FPartly cloudy.6 mph94%30.36 "HgN/A
9:00 PM52 °FPassing clouds.7 mph88%30.36 "HgN/A
8:51 PM52 °FPartly cloudy.7 mph88%30.36 "Hg6 mi
8:30 PM52 °FPassing clouds.6 mph88%30.36 "Hg6 mi
8:00 PM52 °FPassing clouds.5 mph88%30.36 "Hg6 mi
7:30 PM52 °FPassing clouds.6 mph88%30.36 "Hg6 mi
7:00 PM52 °FPassing clouds.8 mph82%30.36 "Hg6 mi
6:30 PM54 °FPassing clouds.7 mph77%30.33 "HgN/A
6:00 PM54 °FPassing clouds.7 mph77%30.33 "HgN/A
5:30 PM55 °FPassing clouds.6 mph72%30.33 "HgN/A
5:00 PM55 °FPassing clouds.8 mph72%30.33 "HgN/A
4:30 PM57 °FPartly sunny.7 mph67%30.33 "HgN/A
4:00 PM57 °FPartly sunny.7 mph67%30.33 "HgN/A
3:30 PM57 °FPartly sunny.7 mph67%30.33 "HgN/A
3:00 PM57 °FPartly sunny.6 mph67%30.33 "HgN/A
2:30 PM57 °FBroken clouds.3 mph67%30.33 "HgN/A
2:00 PM55 °FPartly sunny.No wind72%30.36 "HgN/A
1:30 PM55 °FBroken clouds.2 mph77%30.36 "Hg6 mi
1:00 PM55 °FBroken clouds.6 mph77%30.36 "Hg6 mi
12:30 PM54 °FPartly sunny.7 mph82%30.39 "Hg6 mi
12:00 PM54 °FPartly sunny.No wind82%30.39 "Hg6 mi
11:00 AM52 °FScattered showers. Broken clouds.5 mph88%30.42 "Hg4 mi
10:30 AM50 °FFog.3 mph94%30.42 "Hg4 mi
10:00 AM50 °FFog.1 mph94%30.42 "Hg3 mi
9:30 AM48 °FFog.5 mph100%30.42 "Hg2 mi
9:00 AM46 °FFog.7 mph100%30.42 "Hg2 mi
8:48 AM46 °FFog.6 mph100%30.42 "Hg1 mi
8:30 AM46 °FFog.6 mph100%30.42 "Hg1 mi
8:00 AM45 °FFog.5 mph100%30.39 "Hg0 mi
7:30 AM45 °FFog.1 mph100%30.39 "Hg0 mi
7:00 AM43 °FFog.No wind100%30.39 "Hg0 mi
6:30 AM43 °FFog.No wind93%30.36 "Hg0 mi
6:00 AM39 °FPartly sunny.No wind100%30.36 "Hg2 mi
Weather by CustomWeather, © 2014

See weather overviewHow to use our weather pages